sat.trackr.live / text

‹ back to catalog

CONNECTA IOT-5

NORAD 62703 · 2025-009CY

PAYLOAD ACTIVE UNKNOWN

§ Identity

Operator
Country
TURK
Launch date
2025-01-14
Launch site
AFWTR
Launch vehicle
Mass (kg)
RCS (m²)

External: N2YO · Heavens-Above · Gunter

§ Orbital elements

Epoch: 2026-09-22T17:12:54.596448Z

Period
96.36 min
Inclination
97.6966°
Eccentricity
0.0003719
Mean motion
14.94363975 rev/d
Perigee alt
581.8 km
Apogee alt
586.9 km
Semi-major
6,962.5 km
B*
5.6150e-5
RAAN
342.4247°
Arg perigee
93.9928°
Mean anomaly
266.1717°
Rev number
9,193

§ Raw data

CONNECTA IOT-51 62703U 25009CY  26265.71729857  .00000548  00000+0  56150-4 0  99982 62703  97.6966 342.4247 0003719  93.9928 266.1717 14.94363975 91932

JSON: /api/v1/satellites/62703 · /tle

For live sub-satellite position, see the globe view (requires WebGL).

§ Visibility from observer

Set your observer location to see the next 7 days of passes ≥ 10°. The values pass through the URL so the page stays shareable.

No JS? Fill the form by hand. The geolocation button needs JavaScript.

§ Radio — SatNOGS DB

ModeDescriptionDownlinkUplink
GMSK Mode S - GMSK 4k8 AX.25 TLM 2.240 GHz
GMSK Mode U - GMSK 4k8 AX.25 TLM 401.510 MHz

2 transmitters · refreshed weekly from db.satnogs.org